Location: Unspecified
(40.7945°N, 111.1337°W)
Time: 02:39:01
(UTC-06:00)

CZ-3 Stage 3 - Visible Passes

Search period start: 21 October 2017 00:00
Search period end: 31 October 2017 00:00
Orbit: 420 x 34778 km, 31.0° (Epoch: 20 October)

Date Brightness Start Highest point End Pass type
(mag) Time Alt. Az. Time Alt. Az. Time Alt. Az.
21 Oct 6.9 11:26:30 10° W 11:52:24 41° SSW 17:36:30 10° SSW visible
23 Oct 5.1 04:18:24 16° ESE 04:18:24 16° ESE 04:21:03 10° ESE visible
24 Oct 6.8 11:17:25 10° W 11:43:15 39° SSW 17:21:48 10° SSW visible
26 Oct 5.2 04:09:35 15° ESE 04:09:35 15° ESE 04:11:46 10° ESE visible
27 Oct 6.8 11:08:20 10° W 11:34:07 38° SSW 17:07:03 10° SSW visible
29 Oct 5.4 04:00:45 14° ESE 04:00:45 14° ESE 04:02:28 10° ESE visible
30 Oct 6.8 10:59:15 10° W 11:25:00 37° SSW 16:52:16 10° SSW visible
